BHS230 KMIA-MYNN

Flight info

Callsign BHS230
Flight time 0h 37m
Altitude 21000
Route KLADA2 RAJAY
Aircraft B737/M-SDE2E3FGHIRWXY/LB1

Departure

Time 2026-05-07 23:06
Airport Miami International Airport (KMIA)

Arrival

Time 2026-05-07 23:44
Airport Lynden Pindling International Airport (MYNN)
Time Latitude Longitude Altitude Speed Heading
2026-05-07 22:42 25.79157 -80.27841 25 ft 0 kts 295°
2026-05-07 22:56 25.79152 -80.27829 22 ft 4 kts 292°
2026-05-07 22:56 25.79144 -80.27800 24 ft 4 kts 275°
2026-05-07 22:56 25.79146 -80.27775 25 ft 4 kts 221°
2026-05-07 22:56 25.79154 -80.27769 23 ft 0 kts 191°
2026-05-07 22:58 25.79143 -80.27771 25 ft 5 kts 185°
2026-05-07 22:59 25.79115 -80.27772 23 ft 6 kts 182°
2026-05-07 22:59 25.79073 -80.27785 21 ft 6 kts 202°
2026-05-07 22:59 25.79038 -80.27801 21 ft 0 kts 203°
2026-05-07 23:00 25.79037 -80.27801 21 ft 2 kts 203°
2026-05-07 23:00 25.78992 -80.27822 20 ft 8 kts 202°
2026-05-07 23:00 25.78942 -80.27865 20 ft 12 kts 245°
2026-05-07 23:00 25.78960 -80.27966 21 ft 14 kts 299°
2026-05-07 23:01 25.79008 -80.28058 21 ft 14 kts 297°
2026-05-07 23:01 25.79053 -80.28147 21 ft 13 kts 300°
2026-05-07 23:01 25.79097 -80.28235 22 ft 14 kts 300°
2026-05-07 23:01 25.79169 -80.28363 19 ft 23 kts 304°
2026-05-07 23:02 25.79270 -80.28504 17 ft 23 kts 298°
2026-05-07 23:02 25.79346 -80.28657 14 ft 22 kts 299°
2026-05-07 23:02 25.79423 -80.28804 14 ft 22 kts 300°
2026-05-07 23:02 25.79496 -80.28948 15 ft 21 kts 299°
2026-05-07 23:03 25.79567 -80.29088 17 ft 20 kts 300°
2026-05-07 23:03 25.79636 -80.29223 18 ft 20 kts 300°
2026-05-07 23:03 25.79704 -80.29354 17 ft 19 kts 298°
2026-05-07 23:03 25.79769 -80.29483 16 ft 20 kts 299°
2026-05-07 23:04 25.79846 -80.29635 13 ft 24 kts 299°
2026-05-07 23:04 25.79920 -80.29797 12 ft 22 kts 294°
2026-05-07 23:04 25.79969 -80.29929 12 ft 10 kts 288°
2026-05-07 23:04 25.79974 -80.29950 10 ft 0 kts 285°
2026-05-07 23:05 25.79988 -80.30005 10 ft 14 kts 285°
2026-05-07 23:05 25.80023 -80.30113 13 ft 15 kts 314°
2026-05-07 23:05 25.80074 -80.30066 12 ft 0 kts 87°
2026-05-07 23:06 25.80078 -80.29961 11 ft 54 kts 88°
2026-05-07 23:06 25.80097 -80.29155 61 ft 146 kts 91°
2026-05-07 23:06 25.80136 -80.27888 637 ft 188 kts 92°
2026-05-07 23:06 25.80205 -80.26379 1773 ft 201 kts 90°
2026-05-07 23:07 25.79873 -80.24749 2221 ft 236 kts 118°
2026-05-07 23:07 25.79083 -80.23016 2586 ft 265 kts 119°
2026-05-07 23:07 25.78226 -80.21142 3331 ft 279 kts 118°
2026-05-07 23:07 25.77328 -80.19165 4345 ft 286 kts 117°
2026-05-07 23:08 25.76437 -80.17237 5545 ft 285 kts 118°
2026-05-07 23:08 25.75497 -80.15337 6850 ft 278 kts 119°
2026-05-07 23:08 25.74548 -80.13437 7811 ft 286 kts 118°
2026-05-07 23:08 25.73578 -80.11488 8771 ft 290 kts 117°
2026-05-07 23:09 25.72734 -80.09453 9809 ft 292 kts 110°
2026-05-07 23:09 25.72022 -80.07328 10684 ft 298 kts 109°
2026-05-07 23:09 25.71304 -80.05069 11000 ft 325 kts 109°
2026-05-07 23:09 25.70532 -80.02641 11536 ft 340 kts 109°
2026-05-07 23:10 25.69731 -80.00154 12347 ft 345 kts 109°
2026-05-07 23:10 25.68909 -79.97629 13157 ft 351 kts 110°
2026-05-07 23:10 25.68066 -79.95065 13931 ft 357 kts 110°
2026-05-07 23:10 25.67199 -79.92441 14537 ft 366 kts 110°
2026-05-07 23:11 25.66325 -79.89804 15386 ft 365 kts 110°
2026-05-07 23:11 25.65444 -79.87155 15800 ft 366 kts 110°
2026-05-07 23:11 25.64547 -79.84459 16185 ft 381 kts 110°
2026-05-07 23:11 25.63618 -79.81667 16706 ft 390 kts 110°
2026-05-07 23:12 25.62671 -79.78824 17389 ft 395 kts 110°
2026-05-07 23:12 25.61715 -79.75955 18120 ft 399 kts 110°
2026-05-07 23:12 25.60748 -79.73056 18718 ft 404 kts 110°
2026-05-07 23:12 25.59768 -79.70117 19269 ft 410 kts 109°
2026-05-07 23:13 25.58877 -79.67137 19808 ft 415 kts 107°
2026-05-07 23:13 25.58065 -79.64050 20349 ft 420 kts 105°
2026-05-07 23:13 25.57281 -79.60919 20787 ft 426 kts 105°
2026-05-07 23:13 25.56485 -79.57708 21029 ft 438 kts 105°
2026-05-07 23:14 25.55663 -79.54423 21022 ft 445 kts 105°
2026-05-07 23:14 25.54830 -79.51136 21027 ft 442 kts 105°
2026-05-07 23:14 25.53996 -79.47885 21021 ft 438 kts 105°
2026-05-07 23:14 25.53156 -79.44637 21033 ft 439 kts 105°
2026-05-07 23:15 25.52311 -79.41386 21041 ft 440 kts 105°
2026-05-07 23:15 25.51464 -79.38135 21038 ft 440 kts 105°
2026-05-07 23:15 25.50615 -79.34882 21034 ft 440 kts 105°
2026-05-07 23:15 25.49765 -79.31626 21031 ft 440 kts 105°
2026-05-07 23:16 25.48916 -79.28377 21030 ft 439 kts 105°
2026-05-07 23:16 25.48066 -79.25128 21028 ft 439 kts 105°
2026-05-07 23:16 25.47217 -79.21887 21033 ft 439 kts 105°
2026-05-07 23:16 25.46368 -79.18643 21030 ft 438 kts 105°
2026-05-07 23:17 25.45521 -79.15416 20821 ft 432 kts 105°
2026-05-07 23:17 25.44696 -79.12273 20572 ft 420 kts 105°
2026-05-07 23:17 25.43888 -79.09197 20342 ft 416 kts 105°
2026-05-07 23:17 25.43080 -79.06126 20114 ft 416 kts 105°
2026-05-07 23:18 25.42273 -79.03059 19883 ft 415 kts 105°
2026-05-07 23:18 25.41468 -79.00000 19652 ft 413 kts 105°
2026-05-07 23:18 25.40664 -78.96954 19422 ft 411 kts 105°
2026-05-07 23:18 25.39866 -78.93927 19192 ft 409 kts 105°
2026-05-07 23:19 25.39069 -78.90910 18963 ft 407 kts 105°
2026-05-07 23:19 25.38277 -78.87917 18754 ft 405 kts 105°
2026-05-07 23:19 25.37489 -78.84937 18531 ft 402 kts 105°
2026-05-07 23:19 25.36705 -78.81976 18298 ft 400 kts 105°
2026-05-07 23:20 25.35926 -78.79040 18048 ft 398 kts 105°
2026-05-07 23:20 25.35150 -78.76114 17792 ft 396 kts 105°
2026-05-07 23:20 25.34376 -78.73199 17536 ft 394 kts 105°
2026-05-07 23:20 25.33605 -78.70297 17286 ft 393 kts 105°
2026-05-07 23:21 25.32837 -78.67409 17037 ft 391 kts 105°
2026-05-07 23:21 25.32071 -78.64529 16796 ft 389 kts 105°
2026-05-07 23:21 25.31311 -78.61678 16548 ft 388 kts 105°
2026-05-07 23:21 25.30549 -78.58820 16305 ft 386 kts 105°
2026-05-07 23:22 25.29793 -78.55986 16066 ft 385 kts 105°
2026-05-07 23:22 25.29039 -78.53163 15828 ft 383 kts 105°
2026-05-07 23:22 25.28287 -78.50349 15592 ft 382 kts 106°
2026-05-07 23:22 25.27536 -78.47542 15356 ft 380 kts 105°
2026-05-07 23:23 25.27091 -78.44684 15092 ft 378 kts 88°
2026-05-07 23:23 25.27350 -78.41814 14892 ft 374 kts 82°
2026-05-07 23:23 25.27705 -78.38969 14657 ft 373 kts 81°
2026-05-07 23:23 25.28054 -78.36236 14436 ft 372 kts 81°
2026-05-07 23:24 25.28398 -78.33451 14044 ft 369 kts 82°
2026-05-07 23:24 25.28728 -78.30673 13465 ft 359 kts 82°
2026-05-07 23:24 25.29039 -78.27974 12889 ft 349 kts 82°
2026-05-07 23:24 25.29337 -78.25348 12338 ft 340 kts 82°
2026-05-07 23:25 25.29627 -78.22785 11809 ft 333 kts 82°
2026-05-07 23:25 25.29912 -78.20263 11289 ft 332 kts 82°
2026-05-07 23:25 25.29996 -78.17709 10757 ft 335 kts 97°
2026-05-07 23:25 25.29541 -78.15227 10530 ft 320 kts 101°
2026-05-07 23:26 25.29056 -78.12899 10379 ft 301 kts 101°
2026-05-07 23:26 25.28594 -78.10706 10245 ft 286 kts 101°
2026-05-07 23:26 25.28155 -78.08593 10133 ft 279 kts 101°
2026-05-07 23:26 25.27728 -78.06505 10006 ft 280 kts 101°
2026-05-07 23:27 25.26865 -78.02224 9246 ft 288 kts 101°
2026-05-07 23:27 25.26436 -78.00081 8851 ft 284 kts 101°
2026-05-07 23:27 25.26012 -77.97963 8456 ft 280 kts 102°
2026-05-07 23:28 25.25594 -77.95865 8069 ft 280 kts 102°
2026-05-07 23:28 25.25177 -77.93772 7699 ft 279 kts 102°
2026-05-07 23:28 25.24769 -77.91729 7329 ft 278 kts 102°
2026-05-07 23:28 25.24343 -77.89595 6947 ft 278 kts 102°
2026-05-07 23:29 25.23928 -77.87517 6576 ft 277 kts 103°
2026-05-07 23:29 25.23514 -77.85446 6198 ft 276 kts 103°
2026-05-07 23:29 25.23101 -77.83379 5811 ft 276 kts 103°
2026-05-07 23:29 25.22687 -77.81310 5421 ft 275 kts 103°
2026-05-07 23:30 25.22276 -77.79257 5044 ft 273 kts 104°
2026-05-07 23:30 25.21870 -77.77227 4651 ft 269 kts 104°
2026-05-07 23:30 25.21468 -77.75226 4243 ft 265 kts 103°
2026-05-07 23:30 25.21073 -77.73258 3862 ft 261 kts 103°
2026-05-07 23:31 25.20684 -77.71318 3477 ft 257 kts 103°
2026-05-07 23:31 25.20300 -77.69405 3092 ft 253 kts 103°
2026-05-07 23:31 25.19922 -77.67528 2690 ft 248 kts 103°
2026-05-07 23:31 25.19555 -77.65707 2309 ft 244 kts 102°
2026-05-07 23:32 25.19184 -77.63889 2051 ft 231 kts 105°
2026-05-07 23:32 25.18465 -77.62387 2005 ft 218 kts 130°
2026-05-07 23:32 25.17465 -77.61226 1999 ft 206 kts 135°
2026-05-07 23:32 25.16474 -77.60149 1985 ft 194 kts 135°
2026-05-07 23:33 25.15536 -77.59116 1990 ft 189 kts 135°
2026-05-07 23:33 25.14611 -77.58088 1994 ft 188 kts 134°
2026-05-07 23:33 25.13689 -77.57059 1997 ft 189 kts 134°
2026-05-07 23:33 25.12767 -77.56031 2000 ft 189 kts 134°
2026-05-07 23:34 25.11835 -77.54990 1816 ft 191 kts 134°
2026-05-07 23:34 25.10904 -77.53951 1586 ft 188 kts 135°
2026-05-07 23:34 25.10012 -77.52956 1332 ft 176 kts 135°
2026-05-07 23:34 25.09184 -77.52031 1142 ft 166 kts 135°
2026-05-07 23:35 25.08322 -77.51074 1118 ft 186 kts 135°
2026-05-07 23:35 25.07400 -77.50063 1734 ft 187 kts 135°
2026-05-07 23:35 25.06451 -77.48997 2081 ft 214 kts 135°
2026-05-07 23:35 25.05485 -77.47731 2003 ft 216 kts 117°
2026-05-07 23:36 25.05228 -77.46122 2040 ft 216 kts 80°
2026-05-07 23:36 25.05893 -77.44618 2683 ft 224 kts 54°
2026-05-07 23:36 25.06853 -77.43283 2837 ft 222 kts 47°
2026-05-07 23:36 25.08128 -77.42361 2858 ft 221 kts 17°
2026-05-07 23:37 25.09639 -77.41961 2906 ft 226 kts 12°
2026-05-07 23:37 25.11201 -77.41818 2886 ft 226 kts 349°
2026-05-07 23:37 25.12642 -77.42435 2909 ft 222 kts 333°
2026-05-07 23:37 25.14012 -77.43229 2899 ft 223 kts 332°
2026-05-07 23:38 25.15374 -77.44039 2893 ft 223 kts 331°
2026-05-07 23:38 25.16731 -77.44850 2696 ft 226 kts 331°
2026-05-07 23:38 25.18128 -77.45689 2486 ft 224 kts 331°
2026-05-07 23:38 25.19404 -77.46567 2250 ft 215 kts 315°
2026-05-07 23:39 25.20103 -77.47973 2076 ft 212 kts 278°
2026-05-07 23:39 25.19911 -77.49560 2032 ft 213 kts 243°
2026-05-07 23:39 25.19064 -77.50888 2011 ft 211 kts 231°
2026-05-07 23:39 25.18181 -77.52123 1988 ft 200 kts 231°
2026-05-07 23:40 25.17344 -77.53288 1968 ft 188 kts 231°
2026-05-07 23:40 25.16537 -77.54408 1991 ft 187 kts 231°
2026-05-07 23:40 25.15690 -77.55510 1996 ft 190 kts 219°
2026-05-07 23:40 25.14503 -77.56138 1944 ft 191 kts 197°
2026-05-07 23:41 25.13204 -77.56219 1819 ft 190 kts 158°
2026-05-07 23:41 25.12180 -77.55331 1825 ft 190 kts 133°
2026-05-07 23:41 25.11233 -77.54300 1637 ft 187 kts 135°
2026-05-07 23:41 25.10348 -77.53332 1418 ft 172 kts 135°
2026-05-07 23:42 25.09550 -77.52441 1260 ft 152 kts 135°
2026-05-07 23:42 25.08836 -77.51643 1054 ft 137 kts 135°
2026-05-07 23:42 25.08178 -77.50909 863 ft 132 kts 134°
2026-05-07 23:42 25.07514 -77.50172 720 ft 137 kts 134°
2026-05-07 23:43 25.06854 -77.49423 521 ft 137 kts 132°
2026-05-07 23:43 25.06195 -77.48668 362 ft 137 kts 134°
2026-05-07 23:43 25.05505 -77.47917 149 ft 140 kts 133°
2026-05-07 23:43 25.04828 -77.47169 22 ft 127 kts 133°
2026-05-07 23:44 25.04380 -77.46669 11 ft 53 kts 134°
2026-05-07 23:44 25.04179 -77.46420 9 ft 37 kts 119°
2026-05-07 23:44 25.04116 -77.46260 11 ft 18 kts 107°
2026-05-07 23:44 25.04156 -77.46180 11 ft 12 kts 350°
2026-05-07 23:45 25.04220 -77.46233 12 ft 12 kts 313°
2026-05-07 23:45 25.04278 -77.46299 12 ft 13 kts 315°
2026-05-07 23:45 25.04347 -77.46376 11 ft 16 kts 315°
2026-05-07 23:45 25.04424 -77.46463 11 ft 16 kts 315°
2026-05-07 23:46 25.04501 -77.46547 12 ft 15 kts 315°
2026-05-07 23:46 25.04548 -77.46601 12 ft 15 kts 314°
2026-05-07 23:46 25.04641 -77.46704 13 ft 14 kts 317°
2026-05-07 23:46 25.04724 -77.46724 11 ft 13 kts 32°
2026-05-07 23:47 25.04784 -77.46705 11 ft 8 kts 326°
2026-05-07 23:47 25.04809 -77.46735 11 ft 0 kts 310°